Weather in Kiama

Australia     34°40′05″S   150°51′08″E
temp.,
°C
wind,
m/s
gust,
m/s
humid.,
%
clouds,
%
prec.,
mm/h
press.,
hPa
HPBL,
m
23 april, fri
fri2301:00+9w37680 0.0 1015178
04:00+9w35760 0.0 1015134
07:00+9wnw34760 0.0 101695
10:00+16w34430 0.0 1017993
13:00+20s24320 0.0 10151669
16:00+18e23450 0.0 1015713
19:00+12n23680 0.0 1019102
22:00+11nw22678 0.0 102052
24 april, sat
sat2401:00+10wnw22683 0.0 102048
04:00+8wnw227688 0.0 102063
07:00+8wnw227699 0.0 102271
10:00+17wnw1146100 0.0 1022631
13:00+20ese1339100 0.0 10191246
16:00+19ese044571 0.0 1019777
19:00+12w236299 0.0 102294
22:00+11w236895 0.0 102369
25 april, sun
sun2501:00+9w23722 0.0 102373
04:00+9w24760 0.0 102378
07:00+9w238617 0.0 102476
10:00+15sw127687 0.2 1025352
13:00+17se226150 0.3 10231095
16:00+16se236524 0.4 1023712
19:00+12nnw11833 0.0 1025180
22:00+12w128589 0.0 102690
26 april, mon
mon2601:00+13w117872 0.0 102567
04:00+12wnw118230 0.0 102449
07:00+11w228321 0.0 102655
10:00+18se01532 0.0 1026981
13:00+19ese335423 0.0 10241116
16:00+17e237025 0.0 1024727
19:00+14w018696 0.0 1027187
22:00+14sw1285100 0.1 1028132
27 april, tue
tue2701:00+13w228883 0.0 102770
04:00+12wsw129079 0.1 102747
07:00+13wsw118199 0.0 102981
10:00+16ssw117040 0.1 1029370
13:00+18se326561 0.0 1027824
16:00+17ese237356 0.2 1026662
19:00+16se1177100 0.1 1027157
22:00+15ssw1185100 0.2 1028140